| time (UTC) | temp C | wind direction | speed KPH | gust KPH | rain 1hr cm | rain 24hr cm | rain mn cm | humidity % | barometer mb |
| 20260504150837 | 18 | 176 | 4.8 | 8.0 | 0.00 | 0.00 | 0.00 | 42 | 1002.4 |
| 20260504150333 | 17 | 281 | 6.4 | 14.5 | 0.00 | 0.00 | 0.00 | 40 | 1002.3 |
| 20260504141303 | 16 | 121 | 8.0 | 9.7 | 0.00 | 0.00 | 0.00 | 54 | 1002.2 |
| 20260504140800 | 16 | 153 | 1.6 | 3.2 | 0.00 | 0.00 | 0.00 | 58 | 1002.2 |
| 20260504140255 | 16 | 183 | 6.4 | 8.0 | 0.00 | 0.00 | 0.00 | 56 | 1002.3 |
| 20260504130724 | 13 | 121 | 3.2 | 3.2 | 0.00 | 0.00 | 0.00 | 65 | 1002.6 |
| 20260504130220 | 14 | 140 | 3.2 | 3.2 | 0.00 | 0.00 | 0.00 | 65 | 1002.8 |
| 20260504120144 | 10 | 130 | 3.2 | 3.2 | 0.00 | 0.00 | 0.00 | 77 | 1003.0 |
| 20260504110612 | 7 | 157 | 0.0 | 0.0 | 0.00 | 0.00 | 0.00 | 81 | 1003.2 |
| 20260504110108 | 7 | 169 | 0.0 | 0.0 | 0.00 | 0.00 | 0.00 | 81 | 1003.2 |
| 20260504100534 | 6 | 178 | 0.0 | 0.0 | 0.00 | 0.00 | 0.00 | 80 | 1003.2 |
| 20260504081927 | 6 | 160 | 0.0 | 0.0 | 0.00 | 0.00 | 0.00 | 69 | 1002.9 |
| 20260504081424 | 6 | 162 | 0.0 | 0.0 | 0.00 | 0.00 | 0.00 | 69 | 1003.0 |
| 20260504080920 | 7 | 162 | 0.0 | 0.0 | 0.00 | 0.00 | 0.00 | 68 | 1003.0 |
| 20260504080417 | 7 | 162 | 0.0 | 0.0 | 0.00 | 0.00 | 0.00 | 67 | 1003.1 |
| 20260504070344 | 7 | 159 | 0.0 | 0.0 | 0.00 | 0.00 | 0.00 | 60 | 1003.0 |
| 20260504050732 | 7 | 152 | 0.0 | 0.0 | 0.00 | 0.00 | 0.00 | 63 | 1003.1 |
| 20260504050229 | 7 | 152 | 0.0 | 0.0 | 0.00 | 0.00 | 0.00 | 64 | 1003.1 |
| 20260504045727 | 8 | 153 | 0.0 | 0.0 | 0.00 | 0.00 | 0.00 | 61 | 1003.1 |
| 20260504045221 | 8 | 155 | 0.0 | 0.0 | 0.00 | 0.00 | 0.00 | 60 | 1002.8 |
| 20260504044719 | 8 | 153 | 0.0 | 0.0 | 0.00 | 0.00 | 0.00 | 60 | 1002.8 |
| 20260504044217 | 7 | 155 | 0.0 | 0.0 | 0.00 | 0.00 | 0.00 | 60 | 1003.0 |
| 20260504043714 | 7 | 153 | 0.0 | 0.0 | 0.00 | 0.00 | 0.00 | 62 | 1003.0 |
| 20260504043210 | 7 | 153 | 0.0 | 0.0 | 0.00 | 0.00 | 0.00 | 62 | 1002.6 |
| 20260504042708 | 7 | 153 | 0.0 | 0.0 | 0.00 | 0.00 | 0.00 | 63 | 1002.7 |
| 20260504042204 | 7 | 153 | 0.0 | 0.0 | 0.00 | 0.00 | 0.00 | 63 | 1002.8 |
| 20260504041700 | 7 | 153 | 0.0 | 0.0 | 0.00 | 0.00 | 0.00 | 63 | 1002.6 |
| 20260504041156 | 7 | 153 | 0.0 | 0.0 | 0.00 | 0.00 | 0.00 | 63 | 1002.8 |
| 20260504040653 | 7 | 150 | 0.0 | 0.0 | 0.00 | 0.00 | 0.00 | 64 | 1002.6 |
| 20260504040150 | 7 | 150 | 0.0 | 0.0 | 0.00 | 0.00 | 0.00 | 63 | 1002.4 |
| 20260504035647 | 7 | 150 | 0.0 | 0.0 | 0.00 | 0.00 | 0.00 | 62 | 1002.6 |
| 20260504035144 | 7 | 149 | 0.0 | 0.0 | 0.00 | 0.00 | 0.00 | 62 | 1002.3 |
| 20260504034641 | 7 | 154 | 0.0 | 0.0 | 0.00 | 0.00 | 0.00 | 64 | 1002.5 |
| 20260504034138 | 7 | 154 | 0.0 | 0.0 | 0.00 | 0.00 | 0.00 | 63 | 1002.4 |
| 20260504033636 | 7 | 154 | 0.0 | 0.0 | 0.00 | 0.00 | 0.00 | 61 | 1002.5 |
| 20260504033133 | 7 | 151 | 0.0 | 0.0 | 0.00 | 0.00 | 0.00 | 62 | 1002.4 |
| 20260504032630 | 8 | 150 | 0.0 | 0.0 | 0.00 | 0.00 | 0.00 | 60 | 1002.5 |
| 20260504032127 | 8 | 150 | 0.0 | 0.0 | 0.00 | 0.00 | 0.00 | 60 | 1002.5 |
| 20260504031624 | 8 | 152 | 0.0 | 0.0 | 0.00 | 0.00 | 0.00 | 61 | 1002.4 |
| 20260504031120 | 8 | 159 | 0.0 | 0.0 | 0.00 | 0.00 | 0.00 | 60 | 1002.4 |
| 20260504030617 | 8 | 153 | 0.0 | 0.0 | 0.00 | 0.00 | 0.00 | 60 | 1002.5 |
| 20260504030114 | 8 | 152 | 0.0 | 0.0 | 0.00 | 0.00 | 0.00 | 59 | 1002.2 |
| 20260504025610 | 8 | 152 | 0.0 | 0.0 | 0.00 | 0.00 | 0.00 | 59 | 1002.3 |
| 20260504025108 | 8 | 152 | 0.0 | 0.0 | 0.00 | 0.00 | 0.00 | 57 | 1002.5 |
| 20260504024605 | 9 | 150 | 0.0 | 0.0 | 0.00 | 0.00 | 0.00 | 57 | 1002.5 |
| 20260504024101 | 9 | 174 | 0.0 | 0.0 | 0.00 | 0.00 | 0.00 | 54 | 1002.4 |
| 20260504023558 | 9 | 163 | 0.0 | 0.0 | 0.00 | 0.00 | 0.00 | 58 | 1002.4 |
| 20260504023054 | 9 | 152 | 0.0 | 0.0 | 0.00 | 0.00 | 0.00 | 57 | 1002.4 |
| 20260504022550 | 8 | 152 | 0.0 | 0.0 | 0.00 | 0.00 | 0.00 | 58 | 1002.3 |
| 20260504022046 | 8 | 153 | 0.0 | 0.0 | 0.00 | 0.00 | 0.00 | 58 | 1002.5 |
| 20260504021544 | 8 | 151 | 0.0 | 0.0 | 0.00 | 0.00 | 0.00 | 58 | 1002.4 |
| 20260504021041 | 8 | 152 | 0.0 | 0.0 | 0.00 | 0.00 | 0.00 | 57 | 1002.3 |
| 20260504020538 | 8 | 151 | 0.0 | 0.0 | 0.00 | 0.00 | 0.00 | 58 | 1002.4 |
| 20260504020034 | 9 | 152 | 0.0 | 0.0 | 0.00 | 0.00 | 0.00 | 57 | 1002.3 |
| 20260504015530 | 9 | 151 | 0.0 | 0.0 | 0.00 | 0.00 | 0.00 | 57 | 1002.3 |
| 20260504015026 | 9 | 153 | 0.0 | 0.0 | 0.00 | 0.00 | 0.00 | 55 | 1002.2 |
| 20260504014523 | 10 | 154 | 0.0 | 0.0 | 0.00 | 0.00 | 0.00 | 54 | 1002.2 |
| 20260504014020 | 10 | 154 | 0.0 | 0.0 | 0.00 | 0.00 | 0.00 | 55 | 1002.1 |
| 20260504013518 | 10 | 152 | 0.0 | 0.0 | 0.00 | 0.00 | 0.00 | 58 | 1002.4 |
| 20260504013015 | 10 | 152 | 0.0 | 0.0 | 0.00 | 0.00 | 0.00 | 52 | 1002.3 |
| 20260504012512 | 11 | 153 | 0.0 | 0.0 | 0.00 | 0.00 | 0.00 | 48 | 1002.0 |
| 20260504012010 | 11 | 152 | 0.0 | 0.0 | 0.00 | 0.00 | 0.00 | 50 | 1001.8 |
| 20260504011506 | 11 | 167 | 0.0 | 0.0 | 0.00 | 0.00 | 0.00 | 49 | 1002.0 |
| 20260504011002 | 11 | 162 | 0.0 | 0.0 | 0.00 | 0.00 | 0.00 | 47 | 1002.1 |
| 20260504010458 | 11 | 153 | 0.0 | 0.0 | 0.00 | 0.00 | 0.00 | 50 | 1002.0 |
| 20260504005954 | 11 | 161 | 0.0 | 0.0 | 0.00 | 0.00 | 0.00 | 46 | 1001.9 |
| 20260504005451 | 11 | 160 | 0.0 | 1.6 | 0.00 | 0.00 | 0.00 | 46 | 1001.7 |
| 20260504004949 | 11 | 166 | 0.0 | 0.0 | 0.00 | 0.00 | 0.00 | 46 | 1001.7 |
| 20260504004446 | 11 | 152 | 0.0 | 0.0 | 0.00 | 0.00 | 0.00 | 51 | 1001.7 |
| 20260504003943 | 11 | 152 | 0.0 | 0.0 | 0.00 | 0.00 | 0.00 | 51 | 1001.5 |
| 20260504003439 | 11 | 153 | 0.0 | 0.0 | 0.00 | 0.00 | 0.00 | 49 | 1001.4 |
| 20260504002936 | 11 | 152 | 0.0 | 0.0 | 0.00 | 0.00 | 0.00 | 47 | 1001.4 |
| 20260504002433 | 12 | 152 | 0.0 | 0.0 | 0.00 | 0.00 | 0.00 | 46 | 1001.2 |
| 20260504001930 | 12 | 160 | 0.0 | 0.0 | 0.00 | 0.00 | 0.00 | 44 | 1001.2 |
| 20260504001428 | 12 | 151 | 0.0 | 0.0 | 0.00 | 0.00 | 0.00 | 44 | 1001.2 |
| 20260504000924 | 12 | 152 | 0.0 | 0.0 | 0.00 | 0.00 | 0.00 | 43 | 1001.3 |
| 20260504000423 | 13 | 154 | 0.0 | 0.0 | 0.00 | 0.00 | 0.00 | 42 | 1001.2 |
| 20260503235919 | 13 | 153 | 0.0 | 0.0 | 0.00 | 0.00 | 0.00 | 41 | 1001.3 |
| 20260503235416 | 13 | 231 | 1.6 | 1.6 | 0.00 | 0.00 | 0.00 | 40 | 1001.1 |
| 20260503234914 | 13 | 164 | 1.6 | 1.6 | 0.00 | 0.00 | 0.00 | 39 | 1001.0 |
| 20260503234411 | 14 | 189 | 1.6 | 3.2 | 0.00 | 0.00 | 0.00 | 38 | 1000.9 |
| 20260503233909 | 14 | 231 | 4.8 | 8.0 | 0.00 | 0.00 | 0.00 | 37 | 1000.9 |
| 20260503233405 | 14 | 184 | 4.8 | 8.0 | 0.00 | 0.00 | 0.00 | 37 | 1000.9 |
| 20260503232902 | 14 | 185 | 1.6 | 1.6 | 0.00 | 0.00 | 0.00 | 37 | 1000.7 |
| 20260503232359 | 14 | 201 | 1.6 | 1.6 | 0.00 | 0.00 | 0.00 | 37 | 1000.6 |
| 20260503231856 | 14 | 175 | 1.6 | 3.2 | 0.00 | 0.00 | 0.00 | 36 | 1001.0 |
| 20260503231354 | 14 | 237 | 9.7 | 14.5 | 0.00 | 0.00 | 0.00 | 36 | 1001.0 |
| 20260503230850 | 15 | 227 | 8.0 | 9.7 | 0.00 | 0.00 | 0.00 | 35 | 1000.7 |
| 20260503230346 | 15 | 197 | 3.2 | 3.2 | 0.00 | 0.00 | 0.00 | 35 | 1000.7 |
| 20260503225844 | 15 | 237 | 1.6 | 3.2 | 0.00 | 0.00 | 0.00 | 36 | 1000.7 |
| 20260503225340 | 15 | 179 | 1.6 | 1.6 | 0.00 | 0.00 | 0.00 | 35 | 1000.7 |
| 20260503224836 | 15 | 219 | 8.0 | 14.5 | 0.00 | 0.00 | 0.00 | 34 | 1000.6 |
| 20260503224334 | 15 | 169 | 0.0 | 1.6 | 0.00 | 0.00 | 0.00 | 35 | 1000.6 |
| 20260503223831 | 15 | 232 | 6.4 | 9.7 | 0.00 | 0.00 | 0.00 | 34 | 1000.7 |
| 20260503223329 | 15 | 264 | 3.2 | 4.8 | 0.00 | 0.00 | 0.00 | 35 | 1000.7 |
| 20260503222824 | 15 | 153 | 1.6 | 1.6 | 0.00 | 0.00 | 0.00 | 34 | 1000.7 |
| 20260503222323 | 15 | 140 | 4.8 | 8.0 | 0.00 | 0.00 | 0.00 | 34 | 1000.9 |
| 20260503221821 | 15 | 158 | 4.8 | 8.0 | 0.00 | 0.00 | 0.00 | 34 | 1000.7 |
| 20260503221319 | 15 | 308 | 8.0 | 11.3 | 0.00 | 0.00 | 0.00 | 34 | 1000.7 |
| 20260503220815 | 15 | 273 | 6.4 | 9.7 | 0.00 | 0.00 | 0.00 | 33 | 1000.5 |
| 20260503220312 | 16 | 199 | 8.0 | 11.3 | 0.00 | 0.00 | 0.00 | 32 | 1000.5 |
| 20260503215809 | 15 | 203 | 3.2 | 4.8 | 0.00 | 0.00 | 0.00 | 32 | 1000.7 |
| 20260503215306 | 15 | 200 | 12.9 | 17.7 | 0.00 | 0.00 | 0.00 | 32 | 1000.6 |
| 20260503214804 | 15 | 143 | 1.6 | 3.2 | 0.00 | 0.00 | 0.00 | 33 | 1000.7 |
| 20260503214301 | 15 | 177 | 3.2 | 4.8 | 0.00 | 0.00 | 0.00 | 31 | 1000.5 |
| 20260503213758 | 15 | 108 | 4.8 | 8.0 | 0.00 | 0.00 | 0.00 | 33 | 1000.6 |
| 20260503213255 | 15 | 181 | 3.2 | 3.2 | 0.00 | 0.00 | 0.00 | 34 | 1000.5 |
| 20260503212751 | 15 | 195 | 6.4 | 11.3 | 0.00 | 0.00 | 0.00 | 33 | 1000.4 |
| 20260503212249 | 15 | 307 | 4.8 | 8.0 | 0.00 | 0.00 | 0.00 | 33 | 1000.5 |
| 20260503211741 | 15 | 133 | 0.0 | 0.0 | 0.00 | 0.00 | 0.00 | 35 | 1000.4 |
| 20260503211237 | 15 | 168 | 4.8 | 8.0 | 0.00 | 0.00 | 0.00 | 33 | 1000.6 |
| 20260503210733 | 15 | 142 | 1.6 | 1.6 | 0.00 | 0.00 | 0.00 | 34 | 1000.5 |
| 20260503210230 | 15 | 319 | 8.0 | 12.9 | 0.00 | 0.00 | 0.00 | 34 | 1000.7 |
| 20260503205726 | 15 | 119 | 4.8 | 8.0 | 0.00 | 0.00 | 0.00 | 33 | 1000.6 |
| 20260503205222 | 15 | 68 | 4.8 | 8.0 | 0.00 | 0.00 | 0.00 | 37 | 1000.6 |
| 20260503204719 | 15 | 225 | 8.0 | 11.3 | 0.00 | 0.00 | 0.00 | 34 | 1000.7 |
| 20260503204217 | 14 | 14 | 6.4 | 8.0 | 0.00 | 0.00 | 0.00 | 36 | 1000.6 |
| 20260503203714 | 14 | 231 | 11.3 | 12.9 | 0.00 | 0.00 | 0.00 | 35 | 1000.9 |
| 20260503203211 | 14 | 253 | 8.0 | 9.7 | 0.00 | 0.00 | 0.00 | 36 | 1001.0 |
| 20260503202708 | 14 | 0 | 22.5 | 32.2 | 0.00 | 0.00 | 0.00 | 34 | 1000.7 |
| 20260503202206 | 13 | 275 | 4.8 | 8.0 | 0.00 | 0.00 | 0.00 | 36 | 1001.0 |
| 20260503201703 | 13 | 203 | 6.4 | 9.7 | 0.00 | 0.00 | 0.00 | 36 | 1001.0 |
| 20260503201201 | 13 | 204 | 1.6 | 3.2 | 0.00 | 0.00 | 0.00 | 37 | 1000.7 |
| 20260503200657 | 14 | 177 | 3.2 | 3.2 | 0.00 | 0.00 | 0.00 | 35 | 1001.0 |
| 20260503200154 | 14 | 155 | 1.6 | 3.2 | 0.00 | 0.00 | 0.00 | 35 | 1000.9 |
| 20260503195651 | 13 | 228 | 1.6 | 1.6 | 0.00 | 0.00 | 0.00 | 36 | 1000.7 |
| 20260503195148 | 13 | 300 | 3.2 | 8.0 | 0.00 | 0.00 | 0.00 | 37 | 1001.0 |
| 20260503194644 | 13 | 154 | 1.6 | 3.2 | 0.00 | 0.00 | 0.00 | 36 | 1001.0 |
| 20260503194140 | 14 | 209 | 1.6 | 1.6 | 0.00 | 0.00 | 0.00 | 38 | 1000.9 |
| 20260503193637 | 13 | 99 | 3.2 | 4.8 | 0.00 | 0.00 | 0.00 | 38 | 1001.1 |
| 20260503193132 | 13 | 108 | 6.4 | 11.3 | 0.00 | 0.00 | 0.00 | 36 | 1001.3 |
| 20260503192628 | 14 | 14 | 6.4 | 9.7 | 0.00 | 0.00 | 0.00 | 35 | 1001.3 |
| 20260503192124 | 14 | 74 | 3.2 | 3.2 | 0.00 | 0.00 | 0.00 | 36 | 1001.3 |
| 20260503191621 | 13 | 349 | 12.9 | 20.9 | 0.00 | 0.00 | 0.00 | 36 | 1001.1 |
| 20260503191118 | 13 | 274 | 4.8 | 8.0 | 0.00 | 0.00 | 0.00 | 35 | 1001.5 |
| 20260503190615 | 13 | 197 | 1.6 | 3.2 | 0.00 | 0.00 | 0.00 | 37 | 1001.4 |
| 20260503190112 | 13 | 346 | 8.0 | 16.1 | 0.00 | 0.00 | 0.00 | 37 | 1001.2 |
| 20260503185609 | 13 | 173 | 8.0 | 12.9 | 0.00 | 0.00 | 0.00 | 35 | 1001.3 |
| 20260503185108 | 13 | 320 | 17.7 | 24.1 | 0.00 | 0.00 | 0.00 | 35 | 1001.2 |
| 20260503184604 | 13 | 337 | 6.4 | 9.7 | 0.00 | 0.00 | 0.00 | 36 | 1001.3 |
| 20260503184101 | 13 | 302 | 14.5 | 17.7 | 0.00 | 0.00 | 0.00 | 35 | 1001.6 |
| 20260503183557 | 13 | 315 | 6.4 | 14.5 | 0.00 | 0.00 | 0.00 | 36 | 1001.6 |
| 20260503183055 | 13 | 327 | 4.8 | 8.0 | 0.00 | 0.00 | 0.00 | 37 | 1001.6 |
| 20260503182553 | 13 | 285 | 11.3 | 17.7 | 0.00 | 0.00 | 0.00 | 35 | 1001.8 |
| 20260503182051 | 12 | 204 | 3.2 | 3.2 | 0.00 | 0.00 | 0.00 | 40 | 1001.8 |
| 20260503181548 | 13 | 333 | 8.0 | 14.5 | 0.00 | 0.00 | 0.00 | 36 | 1002.1 |
| 20260503181044 | 13 | 182 | 4.8 | 9.7 | 0.00 | 0.00 | 0.00 | 35 | 1001.7 |
| 20260503180541 | 13 | 310 | 9.7 | 11.3 | 0.00 | 0.00 | 0.00 | 36 | 1001.8 |
| 20260503180038 | 13 | 356 | 11.3 | 14.5 | 0.00 | 0.00 | 0.00 | 38 | 1001.7 |
| 20260503175535 | 12 | 310 | 11.3 | 16.1 | 0.00 | 0.00 | 0.00 | 36 | 1001.7 |
| 20260503175032 | 12 | 208 | 4.8 | 9.7 | 0.00 | 0.00 | 0.00 | 38 | 1001.8 |
| 20260503174524 | 12 | 265 | 8.0 | 9.7 | 0.00 | 0.00 | 0.00 | 35 | 1001.8 |
| 20260503174020 | 12 | 191 | 3.2 | 3.2 | 0.00 | 0.00 | 0.00 | 37 | 1001.7 |
| 20260503173515 | 13 | 281 | 9.7 | 16.1 | 0.00 | 0.00 | 0.00 | 36 | 1002.0 |
| 20260503173011 | 13 | 265 | 3.2 | 3.2 | 0.00 | 0.00 | 0.00 | 36 | 1002.1 |
| 20260503172509 | 12 | 265 | 4.8 | 4.8 | 0.00 | 0.00 | 0.00 | 36 | 1001.9 |
| 20260503172001 | 11 | 320 | 4.8 | 12.9 | 0.00 | 0.00 | 0.00 | 37 | 1002.1 |
| 20260503171457 | 12 | 204 | 12.9 | 17.7 | 0.00 | 0.00 | 0.00 | 38 | 1002.3 |
| 20260503170955 | 12 | 188 | 3.2 | 8.0 | 0.00 | 0.00 | 0.00 | 39 | 1002.2 |
| 20260503170450 | 12 | 313 | 4.8 | 4.8 | 0.00 | 0.00 | 0.00 | 40 | 1002.2 |